Lid_Strength_Index
1 3 4 5 10 12 15 13 10 9 9 8 7 7 8 8 9 12 4 2 0 0 -0 -0 -1 -1 -1 -1 -1 -1 -2 -2 -1 -2 -2 -2 -2 -2 -2 -2 -2 -2 -2 -2 -2 -2 -2 -2 -1
2 3 5 8 13 17 15 11 11 9 8 7 7 7 8 9 5 5 5 1 0 0 -0 -0 -0 -1 -1 -1 -1 -1 -2 -2 -2 -2 -2 -2 -2 -2 -2 -2 -2 -2 -2 -2 -2 -2 -2 -1 -1
4 3 7 10 13 16 15 11 10 8 7 7 9 7 7 8 5 5 4 1 0 0 -0 -0 -0 -1 -1 -1 -1 -1 -1 -2 -2 -2 -2 -2 -2 -2 -2 -2 -2 -2 -2 -2 -2 -2 -1 -1 -1
8 6 8 12 15 12 11 10 9 9 7 6 7 9 6 4 4 4 1 0 1 0 -0 -0 -0 -1 -1 -1 -1 -1 -1 -2 -2 -2 -2 -2 -2 -2 -2 -2 -2 -2 -2 -2 -1 -1 -1 -1 -1
7 9 13 15 13 11 10 10 10 10 9 7 7 9 8 4 4 4 1 0 1 0 -0 -0 -0 -1 -1 -1 -1 -1 -1 -1 -2 -2 -2 -2 -2 -2 -2 -2 -2 -2 -2 -1 -1 -1 -1 -1 -1
11 12 15 16 14 11 11 10 10 10 8 7 8 9 8 3 4 5 2 1 0 0 -0 -0 1 0 -0 -1 -1 -1 -1 -1 -1 -2 -2 -2 -2 -2 -2 -2 -2 -2 -1 -1 -1 -1 -1 -1 -1
12 14 17 17 16 13 12 10 11 11 10 9 9 10 7 5 3 4 3 1 1 1 0 -0 -0 0 1 1 0 -0 -1 -1 -1 -1 -1 -1 -2 -2 -2 -2 -2 -2 -2 -1 -1 -1 -1 -1 -1
11 14 17 17 16 15 12 11 10 10 10 8 8 10 9 4 3 4 2 2 2 1 1 0 -0 -0 0 0 1 1 -0 -0 -1 -1 -0 -0 -1 -1 -1 -1 -1 -2 -2 -2 -1 -1 -1 -1 -1
10 15 17 16 16 14 11 11 10 9 10 9 8 6 5 3 2 4 3 3 2 2 1 0 0 -0 0 1 1 1 1 1 0 0 1 1 1 0 -0 -1 -1 -2 -2 -2 -1 -1 -1 -1 -1
13 16 15 13 13 13 11 11 10 11 10 11 9 7 7 8 5 4 5 4 3 3 2 0 0 0 0 -0 1 1 1 0 0 0 1 1 0 1 0 1 0 -1 -1 -1 -1 -1 -1 -0 1
12 16 12 12 10 10 11 11 10 10 11 11 10 8 7 8 8 5 4 3 3 2 2 1 0 0 -0 -0 1 2 1 1 1 1 1 1 0 1 1 1 1 1 2 1 0 0 0 1 2
14 11 11 10 9 10 11 10 11 11 10 8 8 6 7 8 8 8 4 3 3 2 2 1 0 0 0 0 1 2 1 1 1 1 1 1 2 2 2 1 1 1 1 2 2 2 2 2 1
13 12 10 10 10 10 9 10 11 10 8 7 6 5 6 5 4 3 3 2 2 3 2 2 0 0 0 1 0 1 1 1 1 1 1 1 1 2 2 2 2 2 2 2 2 2 2 2 2
11 11 11 10 10 10 10 11 10 9 8 8 8 7 7 6 5 4 3 3 3 2 2 1 1 0 0 0 0 1 1 1 1 1 1 0 1 2 2 2 2 2 2 2 2 2 2 2 2
11 13 12 11 10 10 10 12 11 9 8 9 9 8 7 7 6 5 4 3 3 3 2 1 1 0 1 0 0 1 1 1 1 0 0 1 1 2 2 3 3 2 2 2 2 2 2 2 2
13 14 16 12 10 10 11 15 10 9 9 10 9 8 8 8 6 5 4 4 3 3 4 1 1 1 1 1 0 0 0 0 1 0 1 1 1 1 2 3 2 2 2 2 2 1 1 1 2
15 19 16 14 10 11 11 13 8 8 9 10 10 10 9 9 7 6 4 3 3 4 3 2 2 1 1 1 1 0 1 1 1 1 1 1 1 1 2 2 2 2 2 2 2 2 1 1 1
20 19 16 16 12 11 13 11 9 9 9 10 10 10 10 8 7 5 4 4 3 3 3 2 2 1 1 1 1 1 1 2 1 1 1 1 1 1 2 2 2 2 2 2 2 1 1 1 1
15 15 17 14 12 12 12 11 11 10 10 10 11 11 10 9 7 4 4 3 4 4 4 4 2 1 1 1 2 2 2 2 1 1 2 1 1 1 1 2 1 1 2 2 1 1 1 2 1
14 17 17 14 11 11 12 14 12 10 10 10 10 10 10 9 6 4 3 4 4 4 3 4 3 1 1 1 1 1 1 1 1 1 1 1 1 1 1 1 1 1 2 2 1 1 2 2 2
16 18 17 16 12 11 14 14 13 11 10 10 10 9 9 8 6 5 4 4 4 5 4 4 4 3 1 1 1 1 1 2 2 1 1 1 1 1 1 1 1 1 2 2 1 2 2 3 2
17 13 13 14 13 17 13 19 16 14 12 11 11 10 10 8 6 5 5 5 6 4 4 6 5 4 4 1 2 2 3 3 2 1 1 1 1 1 1 1 1 1 1 2 2 2 3 2 4
15 12 14 14 13 14 18 19 20 13 14 13 11 10 10 9 8 7 6 6 6 5 5 6 7 7 6 5 5 4 4 2 1 1 2 2 2 2 2 2 2 3 3 2 3 4 4 4 5
12 13 13 13 14 19 20 21 22 16 13 13 11 10 11 11 9 8 7 7 7 6 6 6 7 7 7 6 6 7 7 6 5 5 4 4 4 4 4 4 4 4 4 4 4 4 4 5 4
13 16 23 23 24 21 17 19 19 14 12 12 12 11 11 11 11 10 10 9 8 8 8 7 8 9 9 8 8 7 7 7 7 6 6 6 6 6 5 5 5 5 5 4 4 4 4 5 5
16 16 21 25 22 21 16 21 18 13 11 11 12 13 12 12 12 12 11 11 10 10 9 10 9 10 9 9 8 8 7 8 7 7 7 7 7 7 6 6 6 6 6 5 5 5 5 5 4
16 17 14 17 20 19 19 17 14 13 13 13 13 13 13 12 12 12 12 12 12 11 11 11 10 10 9 9 8 8 8 7 8 7 7 7 7 7 7 7 7 7 6 6 6 6 6 6 6
15 13 18 19 26 24 19 19 18 15 15 14 14 15 14 13 12 12 13 13 12 12 12 11 11 11 10 10 9 9 9 8 8 8 8 8 8 8 8 8 8 8 7 7 7 7 7 8 8
16 16 16 17 18 20 21 19 16 14 14 15 14 13 14 14 13 13 12 12 12 12 12 12 12 11 11 10 10 10 10 9 9 9 9 9 9 9 9 9 9 8 9 8 9 9 9 9 10
15 15 15 19 20 18 18 19 13 14 14 15 14 13 13 13 13 13 13 12 12 13 12 12 12 11 11 11 10 10 9 10 10 10 10 10 10 10 10 10 10 10 10 9 10 10 10 10 10